Regional Weather Roundup
Issued by NWS

Home | Current Version | Previous Version | Graphics & Text | Print | Product List | Glossary On
Versions: 1 2 3 4 5 6 7 8 9 10 11 12 13 14 15 16 17 18 19 20 21 22 23 24 25 26 27 28 29
000
ASUS45 KGTF 200710
RWRMT
MONTANA HOURLY WEATHER ROUNDUP
NATIONAL WEATHER SERVICE GREAT FALLS MT
100 AM MDT MON APR 20 2015

NOTE: "FAIR" INDICATES FEW OR NO CLOUDS BELOW 12000 FEET WITH NO
SIGNIFICANT WEATHER AND/OR OBSTRUCTIONS TO VISIBILITY.

MTZ001>007-043-200800-
WEST OF THE DIVIDE

CITY           SKY/WX    TMP DP  RH WIND       PRES   REMARKS
KALISPELL      SUNNY     36  30  79 CALM      30.00S
MISSOULA       CLEAR     40  27  59 CALM      30.03R
BUTTE          CLEAR     33  23  66 SE5       30.06S
DEER LODGE       N/A     37  25  60 CALM      30.09S
EUREKA           N/A     36  28  75 CALM      30.01R
HAMILTON         N/A     41  28  60 S3        30.02S
LIBBY            N/A     37  30  75 CALM      30.00S
$$

MTZ008-052>055-200800-
SOUTHWEST MONTANA

CITY           SKY/WX    TMP DP  RH WIND       PRES   REMARKS
BOZEMAN        CLEAR     36  25  64 W5        30.06R
DILLON         PTCLDY    38  24  57 E5        30.04R
$$

MTZ009-010-012-014-046-048-049-054-200800-
EAST SLOPES AND CENTRAL MONTANA

CITY           SKY/WX    TMP DP  RH WIND       PRES   REMARKS
CUT BANK       CLEAR     34  18  52 SE9       30.03F WCI  27
GREAT FALLS    CLEAR     30  24  78 S8        30.04F WCI  22
MALMSTROM AFB  CLEAR     30  25  82 SE5       30.05F
HELENA         CLEAR     36  24  62 CALM      30.06S
$$

MTZ011-013-016-021-045-047-050-051-200800-
NORTH CENTRAL MONTANA

CITY           SKY/WX    TMP DP  RH WIND       PRES   REMARKS
HAVRE          CLEAR     30  21  69 S8        30.05F WCI  22
LEWISTOWN      CLEAR     30  19  63 SE3       30.06F
CHINOOK          N/A     28  19  69 CALM      30.06F
FORT BENTON      N/A     37  19  48 CALM      30.07F
$$

MTZ017>020-022>042-056>058-061-062-200800-
EASTERN PLAINS

CITY           SKY/WX    TMP DP  RH WIND       PRES   REMARKS
BAKER          MOCLDY    30  16  56 W3        29.99F
BILLINGS       MOCLDY    42  19  39 CALM      30.06F
GLASGOW        CLEAR     32  22  66 N8        30.02F WCI  25
JORDAN           N/A     28  18  66 W7        30.04S WCI  21
LIVINGSTON     CLOUDY    33  22  63 W3        30.06S
MILES CITY     CLEAR     30  16  56 W10       30.03F WCI  21
SIDNEY         CLEAR     30  12  47 W13       29.98F WCI  20
WOLF POINT     CLEAR     34  22  61 NW10      30.01F WCI  26
BIG TIMBER       N/A     39  21  48 N3        30.08S
FORSYTH          N/A     37  19  48 CALM      30.05S
PLENTYWOOD       N/A     28  16  59 NW6       29.98S WCI  22
POPLAR           N/A     34  18  51 N6        30.01S WCI  29
$$

REGIONAL REPORTS...DAKOTAS

CITY           SKY/WX    TMP DP  RH WIND       PRES   REMARKS
WILLISTON      CLEAR     33  15  47 NW12      29.96S WCI  24
MINOT          CLEAR     32  23  69 W14       29.85F WCI  22
DICKINSON      CLEAR     26  18  71 W10       29.91F WCI  16
BEACH          FAIR      27  10  50 N5        29.98F
CROSBY         FAIR      27  18  69 NW12      29.96R WCI  16
WATFORD CITY   FAIR      32  18  55 W8        29.93S WCI  25
BISMARCK       CLEAR     37  26  64 NW9       29.88F WCI  30
GRAND FORKS    CLOUDY    34  28  80 N20G28    29.73F WCI  22
FARGO          CLOUDY    37  28  70 N24       29.73F WCI  26
BUFFALO SD       N/A     30  15  53 NW13      29.91F WCI  20
RAPID CITY     CLEAR     32  21  64 NW12      29.99S WCI  23
$$

REGIONAL REPORTS...WYOMING/IDAHO/WASHINGTON

CITY           SKY/WX    TMP DP  RH WIND       PRES   REMARKS
GILLETTE       CLOUDY    30  20  66 W7        30.03F WCI  23
SHERIDAN       PTCLDY    28  19  69 S5        30.06F
BUFFALO WY     CLOUDY    34  17  50 NW5       30.05F
CODY           PTCLDY    34  25  69 CALM      30.06F
YELLOWSTONE LA   N/A     26  20  77 W3        30.08S
IDAHO FALLS    PTCLDY    45  27  49 NE3       29.98R
SALMON         CLEAR     43  25  49 SE6       29.99S
BOISE          CLEAR     50  30  46 CALM      29.94S
SPOKANE        PTCLDY    52  31  44 SW9       29.97S
$$

REGIONAL REPORTS...ALBERTA

CITY           SKY/WX    TMP DP  RH WIND       PRES   REMARKS
EDMONTON       CLEAR     41  21  45 SW6       29.97S
CALGARY        CLEAR     39  23  52 SW6       29.99F
LETHBRIDGE     CLEAR     28  23  80 S8        30.01F WCI  20
MEDICINE HAT   CLEAR     30  21  69 S3        30.04S
$$

REGIONAL REPORTS...SASKATCHEWAN

CITY           SKY/WX    TMP DP  RH WIND       PRES   REMARKS
SWIFT CURRENT  CLEAR     28  21  74 W9        30.01F WCI  20
REGINA         CLEAR     25  18  74 NW9       29.98F WCI  15
SASKATOON      CLEAR     25  19  80 N5        30.03F
$$



USA.gov is the U.S. government's official web portal to all federal, state and local government web resources and services.